Overview Statistics Trail Chart Weather Telemetry Raw packets
 

This is the latest recevied weather packets stored in our database for station/object W8KVG. If no packets are shown the sender has not sent any weather packets the latest 10 day(s).

<< 10 11 12 13 14 15 16 >>
Time Temp. Humidity Pressure Rain* Wind** Luminosity Snow
1777862975 6.11° C 72% 1012.4 hPa 0 mm - 0 W/m² -
1777862672 6.11° C 73% 1012.6 hPa 0 mm - 0 W/m² -
1777862369 6.11° C 74% 1012.5 hPa 0 mm - 0 W/m² -
1777862065 6.67° C 73% 1013 hPa 0 mm - 0 W/m² -
1777861761 6.67° C 73% 1012.8 hPa 0 mm - 0 W/m² -
1777861458 7.22° C 70% 1013 hPa 0 mm - 0 W/m² -
1777861155 7.78° C 68% 1013 hPa 0 mm - 0 W/m² -
1777860852 7.78° C 66% 1012.7 hPa 0 mm - 0 W/m² -
1777860549 7.78° C 64% 1012.8 hPa 0 mm - 0 W/m² -
1777860245 8.33° C 63% 1012.7 hPa 0 mm - 0 W/m² -
1777859942 7.78° C 63% 1012.8 hPa 0 mm - 0 W/m² -
1777859638 8.33° C 63% 1012.7 hPa 0 mm - 0 W/m² -
1777859334 8.33° C 64% 1012.8 hPa 0 mm - 0 W/m² -
1777859030 8.89° C 61% 1013 hPa 0 mm - 0 W/m² -
1777858728 8.89° C 61% 1012.8 hPa 0 mm - 0 W/m² -
1777858425 8.89° C 59% 1012.7 hPa 0 mm - 0 W/m² -
1777858122 8.89° C 58% 1012.7 hPa 0 mm - 0 W/m² -
1777857820 9.44° C 57% 1012.6 hPa 0 mm - 0 W/m² -
1777857517 9.44° C 57% 1012.7 hPa 0 mm - 0 W/m² -
1777857213 10° C 55% 1012.5 hPa 0 mm - 0 W/m² -
1777856909 10° C 56% 1012.5 hPa 0 mm - 0 W/m² -
1777856605 10° C 53% 1012.7 hPa 0 mm - 0 W/m² -
1777856302 10.56° C 53% 1012.5 hPa 0 mm - 0 W/m² -
1777855999 10.56° C 53% 1012.6 hPa 0 mm - 0 W/m² -
1777855696 10.56° C 52% 1012.5 hPa 0 mm - 0 W/m² -

* Rain latest hour (hover to see other rain measurements)
** Current wind speed in m/s (hover to see current wind gust speed)